Hattiesburg, MS

12:34 PM CST on December 10, 2016 (GMT -0600)
Chain Municipal

Weather History for KHBG - August, 2012

Change the Weather History Date:

Thursday, August 30, 2012

  Actual Average Record
Temperature  
Mean Temperature 79 °F 81 °F  
Max Temperature 83 °F 91 °F 106 °F (1951)
Min Temperature 75 °F 70 °F 56 °F (1968)
Degree Days  
Heating Degree Days 0 0  
Month to date heating degree days 0 0  
Since 1 June heating degree days 0 0  
Since 1 July heating degree days 0 0  
Cooling Degree Days 14 16  
Month to date cooling degree days 502 498  
Year to date cooling degree days 2225 1858  
Since 1 June cooling degree days 1544 1443  
Growing Degree Days 28 (Base 50)    
Moisture  
Dew Point 74 °F    
Average Humidity 90    
Maximum Humidity 94    
Minimum Humidity 85    
Precipitation  
Precipitation 3.04 in 0.15 in 3.04 in (2012)
Month to date precipitation 14.67 4.58  
Year to date precipitation 53.35 42.01  
Sea Level Pressure  
Sea Level Pressure 29.79 in    
Wind  
Wind Speed 13 mph (SE)    
Max Wind Speed 31 mph    
Max Gust Speed 45 mph    
Visibility 8 miles    
Events Rain , Thunderstorm    
T = Trace of Precipitation, MM = Missing Value Source: NWS Daily Summary

Daily Weather History Graph

Daily Weather History Graph

Search for Another Location

Airport or City:

Trip Planner

Search our weather history database for the weather conditions in past years. The results will help you decide how hot, cold, wet, or windy it might be!

Date:

Astronomy

Aug. 30, 2012 Rise Set
Actual Time 6:32 AM CDT 7:22 PM CDT
Civil Twilight 6:07 AM CDT 7:47 PM CDT
Nautical Twilight 5:38 AM CDT 8:16 PM CDT
Astronomical Twilight 5:08 AM CDT 8:46 PM CDT
Moon 6:38 PM CDT (8/30) 5:33 AM CDT (8/30)
Length of Visible Light 13h 39m
Length of Day
12h 50m
Waxing Gibbous, 99% of the Moon is Illuminated
Aug 30
Waxing Gibbous
Aug 31
Full
Sep 8
Last Quarter
Sep 15
New
Sep 22
First Quarter

Hourly Weather History & Observations

Time (CDT) Temp. Heat Index Dew Point Humidity Pressure Visibility Wind Dir Wind Speed Gust Speed Precip Events Conditions
12:15 AM 77.0 °F - 73.4 °F 89% 29.62 in 8.0 mi ESE 19.6 mph 28.8 mph 0.03 in Rain Light Rain
12:53 AM 77.0 °F - 73.9 °F 90% 29.61 in 6.0 mi ESE 19.6 mph 31.1 mph 0.11 in Rain Rain
1:18 AM 77.0 °F - 73.4 °F 89% 29.62 in 6.0 mi ESE 26.5 mph 35.7 mph 0.05 in Rain Rain
1:35 AM 77.0 °F - 73.4 °F 89% 29.61 in 7.0 mi ESE 24.2 mph 44.9 mph 0.09 in Rain Light Rain
1:53 AM 75.9 °F - 73.0 °F 91% 29.60 in 6.0 mi ESE 17.3 mph 38.0 mph 0.14 in Rain Rain
2:53 AM 75.9 °F - 73.0 °F 91% 29.59 in 7.0 mi ESE 23.0 mph 38.0 mph 0.09 in Rain Rain
3:53 AM 77.0 °F - 73.0 °F 88% 29.60 in 10.0 mi ESE 24.2 mph 31.1 mph 0.08 in Rain Light Rain
4:53 AM 77.0 °F - 73.9 °F 90% 29.60 in 10.0 mi ESE 21.9 mph 29.9 mph 0.07 in Rain Light Rain
5:07 AM 77.0 °F - 73.4 °F 89% 29.62 in 10.0 mi SE 18.4 mph 27.6 mph 0.01 in Rain Light Rain
5:34 AM 77.0 °F - 73.4 °F 89% 29.62 in 8.0 mi ESE 18.4 mph 29.9 mph 0.02 in Rain Rain
5:42 AM 77.0 °F - 73.4 °F 89% 29.62 in 10.0 mi SE 21.9 mph 36.8 mph 0.03 in Rain Light Rain
5:53 AM 77.0 °F - 73.9 °F 90% 29.62 in 10.0 mi ESE 20.7 mph 27.6 mph 0.03 in Rain Light Rain
6:53 AM 75.9 °F - 73.0 °F 91% 29.64 in - SE 23.0 mph 34.5 mph 0.12 in Rain Heavy Rain
7:53 AM 77.0 °F - 73.0 °F 88% 29.68 in - SE 21.9 mph 35.7 mph 0.02 in Rain Light Rain
8:53 AM 78.1 °F - 73.9 °F 87% 29.70 in - SE 18.4 mph 29.9 mph 0.04 in   Mostly Cloudy
9:53 AM 78.1 °F - 73.9 °F 87% 29.74 in - SE 21.9 mph 28.8 mph 0.02 in Rain Light Rain
10:08 AM 78.8 °F - 75.2 °F 89% 29.75 in - SE 18.4 mph 25.3 mph 0.00 in   Overcast
10:53 AM 78.1 °F - 75.0 °F 90% 29.78 in - SSE 13.8 mph - 0.04 in Rain Rain
11:08 AM 78.8 °F - 75.2 °F 89% 29.81 in - SSW 11.5 mph 21.9 mph 0.28 in Rain Heavy Rain
11:12 AM 77.0 °F - 75.2 °F 94% 29.82 in - SSW 19.6 mph 32.2 mph 0.47 in Rain Heavy Rain
11:27 AM 75.2 °F - 73.4 °F 94% 29.81 in - SSE 13.8 mph 18.4 mph 0.60 in Rain Light Rain
11:53 AM 77.0 °F - 73.0 °F 88% 29.79 in - SSE 17.3 mph 28.8 mph 0.80 in Rain Light Rain
12:05 PM 78.8 °F - 73.4 °F 83% 29.80 in - SSE 13.8 mph - 0.00 in   Scattered Clouds
12:53 PM 82.9 °F 90.2 °F 75.0 °F 77% 29.80 in - SSE 16.1 mph 25.3 mph 0.00 in   Mostly Cloudy
1:50 PM 80.6 °F 86.2 °F 75.2 °F 84% 29.84 in - SE 18.4 mph 25.3 mph 0.03 in Rain Light Rain
1:53 PM 80.1 °F 85.1 °F 75.0 °F 85% 29.83 in - SSE 19.6 mph 26.5 mph 0.03 in Rain Light Rain
2:22 PM 78.8 °F - 73.4 °F 83% 29.86 in - SSE 16.1 mph 31.1 mph 0.01 in Rain Rain
2:44 PM 77.0 °F - 73.4 °F 89% 29.86 in - SSE 16.1 mph 23.0 mph 0.12 in Rain Rain
2:51 PM 77.0 °F - 73.4 °F 89% 29.85 in - SSE 16.1 mph - 0.13 in Rain Rain
2:53 PM 75.9 °F - 73.0 °F 91% 29.84 in - SSE 16.1 mph - 0.13 in Rain Rain
3:44 PM 75.2 °F - 73.4 °F 94% 29.86 in - South 4.6 mph - 0.06 in Rain Light Rain
3:53 PM 75.9 °F - 73.0 °F 91% 29.86 in - South 5.8 mph - 0.21 in Rain Rain
4:03 PM 75.2 °F - 73.4 °F 94% 29.87 in - SSE 9.2 mph - 0.14 in Rain Heavy Rain
4:13 PM 75.2 °F - 73.4 °F 94% 29.87 in - SSW 9.2 mph - 0.14 in Rain Light Rain
4:26 PM 75.2 °F - 73.4 °F 94% 29.87 in - SSW 5.8 mph - 0.18 in Rain Rain
5:08 PM 75.2 °F - 73.4 °F 94% 29.87 in - Variable 3.5 mph - 0.16 in Rain Heavy Rain
5:53 PM 75.9 °F - 73.9 °F 94% 29.86 in - Variable 4.6 mph - 0.66 in Rain Heavy Rain
6:50 PM 75.2 °F - 73.4 °F 94% 29.87 in - Calm Calm - 0.37 in Thunderstorm Thunderstorm
7:05 PM 75.2 °F - 73.4 °F 94% 29.87 in - Calm Calm - 0.00 in Rain Light Rain
7:43 PM 77.0 °F - 73.4 °F 89% 29.88 in - ESE 4.6 mph - 0.00 in   Mostly Cloudy
7:53 PM 77.0 °F - 75.0 °F 94% 29.88 in - SE 3.5 mph - 0.00 in   Overcast
8:27 PM 78.8 °F - 75.2 °F 89% 29.91 in - SE 13.8 mph - N/A   Mostly Cloudy
8:53 PM 80.1 °F 85.4 °F 75.9 °F 87% 29.91 in - SE 15.0 mph - N/A   Partly Cloudy
9:19 PM 78.8 °F - 75.2 °F 89% 29.94 in - SSE 9.2 mph - N/A   Mostly Cloudy
9:53 PM 80.1 °F 85.4 °F 75.9 °F 87% 29.95 in - SE 12.7 mph - N/A   Scattered Clouds
10:53 PM 80.1 °F 85.4 °F 75.9 °F 87% 29.97 in - SSE 10.4 mph - N/A   Partly Cloudy
11:39 PM 80.6 °F 86.2 °F 75.2 °F 84% 29.98 in - SSE 13.8 mph - N/A   Scattered Clouds
11:53 PM 80.1 °F 85.4 °F 75.9 °F 87% 29.98 in - SSE 12.7 mph - N/A   Partly Cloudy